Location: Calvera
(42.3882°N, 0.6137°E)
Time: 19:35:17
(UTC+00:00)

USA 290 - Pass Details

Date: 28 October 2020
Orbit: 395 x 418 km, 73.6° (Epoch: 28 October)

Event Time Altitude Azimuth Distance (km) Brightness Sun altitude
Exits shadow 04:07:24 26° 92° (E) 846 4.4 -26.2°
Drops below altitude 10° 04:09:50 10° 45° (NE) 1,473 5.6 -25.7°
Sets 04:12:05 0° 32° (NNE) 2,344 6.5 -25.3°
